Regional Weather Roundup
Issued by NWS Sterling, VA

Home | Current Version | Previous Version | Text Only | Print | Product List | Glossary On
Versions: 1 2 3 4 5 6 7 8 9 10 11 12 13 14 15 16 17 18 19 20 21 22 23 24 25 26 27 28 29 30 31 32 33 34 35 36 37 38 39 40 41 42 43 44 45 46 47 48 49 50
000
ASUS41 KLWX 210710
RWRLWX

REGIONAL WEATHER ROUNDUP
NATIONAL WEATHER SERVICE BALTIMORE MD/WASHINGTON DC
300 AM EDT SUN SEP 21 2014

Note: "FAIR" indicates few or no clouds below 12,000 feet
with no significant weather and/or obstructions to visibility.
 TC=TEMPERATURE CELSIUS

 * =Non NWS site. Station does not report precipitation (e.g. rain,
    snow, etc.), thunder, or fog.

DCZ001-MDZ009-015-VAZ040>042-051-053>054-210800-
WASHINGTON METRO

CITY           SKY/WX    TMP DP  RH WIND       PRES   REMARKS
WASHINGTON NAT MOCLDY    68  61  78 CALM      29.96F
DULLES         PTCLDY    56  56 100 CALM      29.96F
ANDREWS AFB    PTCLDY    58  58  99 E2        29.96F
QUANTICO       PTCLDY    63  59  87 CALM      29.96F
COLLEGE PARK*  PTCLDY    61  61 100 CALM      29.95F
LEESBURG*      CLEAR     61  61 100 CALM      29.97F
MANASSAS*      CLEAR     57  57 100 CALM      29.95F
GAITHERSBURG*  CLEAR     57  55  94 CALM      29.99F

$$

MDZ006>007-011-014-210800-
BALTIMORE METRO

CITY           SKY/WX    TMP DP  RH WIND       PRES   REMARKS
BWI AIRPORT    PTCLDY    59  58  96 CALM      29.95F
MD SCIENCE CTR   N/A     67  62  84 MISG      29.96F
MARTIN STATE   CLEAR     63  63 100 CALM      29.97F FOG
ANNAPOLIS      PTCLDY    66  62  87 CALM      29.95F
FORT MEADE*    CLEAR     54  52  94 CALM      29.98F

$$

MDZ012-015-019>023-210800-
MARYLAND EASTERN SHORE

CITY           SKY/WX    TMP DP  RH WIND       PRES   REMARKS
OCEAN CITY     CLOUDY   N/A N/A N/A N3        29.95F HAZE
SALISBURY      CLOUDY    71  67  87 CALM      29.94F
BAY BRIDGE AP*   N/A     63  63 100 CALM      29.96F
CAMBRIDGE*     CLOUDY    70  64  83 N3        29.94F
EASTON*        MOCLDY    66  66 100 CALM      29.99F

$$

MDZ017>025-210800-
SOUTHERN MARYLAND

CITY           SKY/WX    TMP DP  RH WIND       PRES   REMARKS
PATUXENT RIVER CLOUDY    68  64  87 N5        29.95F
ST INIGOES     MOCLDY    65  61  87 CALM      29.94F
LEONARDTOWN*   MOCLDY    63  61  94 CALM      29.96F

$$

MDZ003>005-210800-
NORTH CENTRAL MARYLAND

CITY           SKY/WX    TMP DP  RH WIND       PRES   REMARKS
FREDERICK*     CLEAR     59  59 100 CALM      29.97F
HAGERSTOWN APT CLEAR     63  58  83 CALM      29.95F
WESTMINSTER*   CLEAR     57  55  94 CALM      29.96F

$$

MDZ501>502-210800-
WESTERN MARYLAND

CITY           SKY/WX    TMP DP  RH WIND       PRES   REMARKS
OAKLAND*       CLEAR     59 N/A N/A SW9       30.00F
CUMBERLAND*    CLEAR     59  55  88 CALM      29.98F

$$

VAZ025>031-210800-
SHENANDOAH VALLEY

CITY           SKY/WX    TMP DP  RH WIND       PRES   REMARKS
WINCHESTER*    CLEAR     61  55  82 SW3       29.95F
STAUNTON*      CLEAR     53  50  91 CALM      30.00F FOG

$$

WVZ021-048>050-054>055-210800-
EASTERN WEST VIRGINIA PANHANDLE

CITY           SKY/WX    TMP DP  RH WIND       PRES   REMARKS
MARTINSBURG    CLEAR     57  53  86 CALM      29.95F
PETERSBURG*    CLEAR     55  53  94 NW8       29.97F FOG

$$

VAZ036>039-050-210800-
CENTRAL FOOTHILLS

CITY           SKY/WX    TMP DP  RH WIND       PRES   REMARKS
CHARLOTTESVILL CLEAR     58  56  93 CALM      29.96F
ORANGE*        CLEAR     54  54 100 CALM      29.96F FOG

$$

VAZ055>057-210800-
NORTH AND CENTRAL PIEDMONT

CITY           SKY/WX    TMP DP  RH WIND       PRES   REMARKS
FREDERICKSBRG* PTCLDY    61  61 100 CALM      29.95F FOG
STAFFORD*        N/A     58  58 100 CALM      29.99F FOG

$$

NCZ024-NYZ072-PAZ021-071-VAZ022-071-210800-
OTHER REGIONAL OBSERVATIONS

CITY           SKY/WX    TMP DP  RH WIND       PRES   REMARKS
NEW YORK CITY  HVY RAIN  67  64  90 CALM      30.01F FOG
PHILADELPHIA   CLOUDY    69  64  84 N3        29.98F
PITTSBURGH     CLOUDY    67  62  84 S6        29.88F
ROANOKE        CLEAR     57  55  93 CALM      30.01F
RICHMOND       MOCLDY    66  62  87 CALM      29.96F
RALEIGH        MOCLDY    65  61  87 NE5       29.95F

$$

ANZ530>537-210800-
MARINE OBSERVATIONS

STATION/POSITION TIME  TEMP    WIND        PRES
                       AIR SEA DIR/SP/G
                 (UTC) (F)     (DEG/KT/KT) (MB)
THOMAS PT LIGHT  0700   68 74   10/  5/  5 1015.3F
BALT KEY BRIDGE  0700   67      60/  4/  5 1014.6F
COVE POINT       0700   70     360/  5/  7 1014.1F
LEWISETTA        0700   70 74   20/  4/  7 1013.6F
SOLOMONS ISLAND  0700      76                N/A
PINEY POINT      0700           40/  7/  8   N/A

$$



USA.gov is the U.S. government's official web portal to all federal, state and local government web resources and services.